| time (UTC) | temp F | wind direction | speed knots | gust knots | rain 1hr in | rain 24hr in | rain mn in | humidity % | barometer mb |
| 20260502231624 | 51 | 90 | 0.0 | 0.0 | 0.00 | 0.00 | 0.00 | 42 | 1020.6 |
| 20260502231121 | 51 | 90 | 0.0 | 0.0 | 0.00 | 0.00 | 0.00 | 42 | 1020.5 |
| 20260502230619 | 51 | 90 | 0.0 | 0.0 | 0.00 | 0.00 | 0.00 | 42 | 1020.6 |
| 20260502230117 | 52 | 90 | 0.0 | 0.0 | 0.00 | 0.00 | 0.00 | 41 | 1020.6 |
| 20260502225614 | 52 | 90 | 0.0 | 0.0 | 0.00 | 0.00 | 0.00 | 41 | 1020.7 |
| 20260502224609 | 52 | 90 | 0.0 | 0.0 | 0.00 | 0.00 | 0.00 | 40 | 1020.7 |
| 20260502224107 | 52 | 90 | 0.0 | 0.0 | 0.00 | 0.00 | 0.00 | 40 | 1020.7 |
| 20260502223604 | 52 | 90 | 0.0 | 0.0 | 0.00 | 0.00 | 0.00 | 40 | 1020.8 |
| 20260502223102 | 53 | 90 | 0.0 | 0.0 | 0.00 | 0.00 | 0.00 | 39 | 1020.8 |
| 20260502222600 | 53 | 90 | 0.0 | 0.0 | 0.00 | 0.00 | 0.00 | 39 | 1020.8 |
| 20260502222057 | 54 | 90 | 0.0 | 15.6 | 0.00 | 0.00 | 0.00 | 39 | 1020.8 |
| 20260502221555 | 54 | 90 | 0.0 | 0.0 | 0.00 | 0.00 | 0.00 | 39 | 1020.8 |
| 20260502221052 | 54 | 90 | 0.0 | 0.0 | 0.00 | 0.00 | 0.00 | 38 | 1020.9 |
| 20260502220550 | 54 | 90 | 0.0 | 10.4 | 0.00 | 0.00 | 0.00 | 38 | 1020.8 |
| 20260502220048 | 54 | 90 | 0.0 | 0.0 | 0.00 | 0.00 | 0.00 | 38 | 1020.8 |
| 20260502215545 | 54 | 90 | 0.0 | 0.0 | 0.00 | 0.00 | 0.00 | 37 | 1020.9 |
| 20260502215043 | 54 | 90 | 0.0 | 0.0 | 0.00 | 0.00 | 0.00 | 37 | 1020.9 |
| 20260502214540 | 54 | 90 | 0.0 | 0.0 | 0.00 | 0.00 | 0.00 | 37 | 1020.9 |
| 20260502214038 | 55 | 90 | 0.0 | 0.0 | 0.00 | 0.00 | 0.00 | 36 | 1021.0 |
| 20260502213536 | 55 | 90 | 0.0 | 0.0 | 0.00 | 0.00 | 0.00 | 36 | 1021.0 |
| 20260502213033 | 55 | 90 | 0.0 | 0.0 | 0.00 | 0.00 | 0.00 | 36 | 1021.0 |
| 20260502212531 | 56 | 90 | 0.0 | 0.0 | 0.00 | 0.00 | 0.00 | 35 | 1021.1 |
| 20260502212028 | 56 | 90 | 0.0 | 0.0 | 0.00 | 0.00 | 0.00 | 35 | 1021.0 |
| 20260502211526 | 56 | 90 | 0.0 | 0.0 | 0.00 | 0.00 | 0.00 | 35 | 1021.1 |
| 20260502211023 | 56 | 90 | 0.0 | 0.0 | 0.00 | 0.00 | 0.00 | 34 | 1021.1 |
| 20260502210521 | 57 | 90 | 0.0 | 0.0 | 0.00 | 0.00 | 0.00 | 34 | 1021.2 |
| 20260502210019 | 57 | 90 | 0.0 | 0.0 | 0.00 | 0.00 | 0.00 | 34 | 1021.2 |
| 20260502205516 | 57 | 90 | 0.0 | 1.7 | 0.00 | 0.00 | 0.00 | 33 | 1021.3 |
| 20260502205014 | 57 | 90 | 0.0 | 0.0 | 0.00 | 0.00 | 0.00 | 33 | 1021.4 |
| 20260502204511 | 58 | 90 | 0.0 | 0.0 | 0.00 | 0.00 | 0.00 | 33 | 1021.4 |
| 20260502204009 | 58 | 90 | 0.0 | 0.0 | 0.00 | 0.00 | 0.00 | 32 | 1021.4 |
| 20260502203507 | 58 | 90 | 0.0 | 0.0 | 0.00 | 0.00 | 0.00 | 32 | 1021.5 |
| 20260502203004 | 59 | 90 | 0.0 | 0.0 | 0.00 | 0.00 | 0.00 | 31 | 1021.5 |
| 20260502202502 | 59 | 90 | 0.0 | 0.0 | 0.00 | 0.00 | 0.00 | 31 | 1021.5 |
| 20260502201959 | 60 | 90 | 0.0 | 0.0 | 0.00 | 0.00 | 0.00 | 30 | 1021.6 |
| 20260502200955 | 61 | 90 | 0.0 | 0.0 | 0.00 | 0.00 | 0.00 | 30 | 1021.6 |
| 20260502200452 | 61 | 90 | 0.0 | 0.0 | 0.00 | 0.00 | 0.00 | 30 | 1021.5 |
| 20260502195950 | 61 | 90 | 0.0 | 0.0 | 0.00 | 0.00 | 0.00 | 29 | 1021.6 |
| 20260502195447 | 61 | 90 | 0.0 | 0.0 | 0.00 | 0.00 | 0.00 | 29 | 1021.5 |
| 20260502194945 | 62 | 90 | 0.0 | 0.0 | 0.00 | 0.00 | 0.00 | 28 | 1021.6 |
| 20260502194443 | 62 | 90 | 0.0 | 0.0 | 0.00 | 0.00 | 0.00 | 28 | 1021.6 |
| 20260502193940 | 62 | 90 | 0.0 | 0.0 | 0.00 | 0.00 | 0.00 | 27 | 1021.5 |
| 20260502193438 | 63 | 90 | 0.0 | 0.0 | 0.00 | 0.00 | 0.00 | 27 | 1021.6 |
| 20260502192935 | 63 | 90 | 0.0 | 0.0 | 0.00 | 0.00 | 0.00 | 27 | 1021.6 |
| 20260502192433 | 63 | 90 | 0.0 | 0.0 | 0.00 | 0.00 | 0.00 | 26 | 1021.5 |
| 20260502191930 | 64 | 90 | 0.0 | 0.0 | 0.00 | 0.00 | 0.00 | 26 | 1021.5 |
| 20260502191428 | 64 | 90 | 0.0 | 0.0 | 0.00 | 0.00 | 0.00 | 25 | 1021.5 |
| 20260502190926 | 64 | 90 | 0.0 | 0.0 | 0.00 | 0.00 | 0.00 | 25 | 1021.5 |
| 20260502190423 | 65 | 90 | 0.0 | 0.0 | 0.00 | 0.00 | 0.00 | 25 | 1021.4 |
| 20260502185921 | 65 | 90 | 0.0 | 0.0 | 0.00 | 0.00 | 0.00 | 24 | 1021.5 |
| 20260502185418 | 65 | 90 | 0.0 | 0.0 | 0.00 | 0.00 | 0.00 | 24 | 1021.5 |
| 20260502184916 | 66 | 90 | 0.0 | 0.0 | 0.00 | 0.00 | 0.00 | 23 | 1021.4 |
| 20260502184414 | 66 | 90 | 0.0 | 0.0 | 0.00 | 0.00 | 0.00 | 23 | 1021.3 |
| 20260502183911 | 67 | 90 | 0.0 | 0.0 | 0.00 | 0.00 | 0.00 | 22 | 1021.3 |
| 20260502183409 | 68 | 90 | 0.0 | 0.0 | 0.00 | 0.00 | 0.00 | 22 | 1021.2 |
| 20260502182906 | 68 | 90 | 0.0 | 0.0 | 0.00 | 0.00 | 0.00 | 21 | 1021.2 |
| 20260502182404 | 69 | 90 | 0.0 | 0.0 | 0.00 | 0.00 | 0.00 | 21 | 1021.1 |
| 20260502181902 | 70 | 90 | 0.0 | 0.0 | 0.00 | 0.00 | 0.00 | 20 | 1021.1 |
| 20260502181359 | 71 | 90 | 0.0 | 0.0 | 0.00 | 0.00 | 0.00 | 20 | 1021.0 |
| 20260502180857 | 72 | 90 | 0.0 | 0.9 | 0.00 | 0.00 | 0.00 | 19 | 1021.0 |
| 20260502180354 | 73 | 90 | 0.0 | 0.9 | 0.00 | 0.00 | 0.00 | 19 | 1021.0 |
| 20260502170325 | 90 | 45 | 0.0 | 9.6 | 0.00 | 0.00 | 0.00 | 16 | 1021.1 |
| 20260502164316 | 92 | 45 | 0.9 | 3.5 | 0.00 | 0.00 | 0.00 | 15 | 1021.3 |
| 20260502163813 | 94 | 45 | 0.0 | 2.6 | 0.00 | 0.00 | 0.00 | 15 | 1021.4 |
| 20260502162808 | 92 | 0 | 0.0 | 8.7 | 0.00 | 0.00 | 0.00 | 15 | 1021.5 |
| 20260502162306 | 91 | 0 | 1.7 | 14.8 | 0.00 | 0.00 | 0.00 | 15 | 1021.5 |
| 20260502161804 | 92 | 45 | 0.0 | 11.3 | 0.00 | 0.00 | 0.00 | 15 | 1021.5 |
| 20260502161301 | 92 | 90 | 2.6 | 7.8 | 0.00 | 0.00 | 0.00 | 14 | 1021.5 |
| 20260502160759 | 92 | 45 | 0.9 | 14.8 | 0.00 | 0.00 | 0.00 | 15 | 1021.5 |
| 20260502152237 | 95 | 45 | 0.0 | 14.8 | 0.00 | 0.00 | 0.00 | 15 | 1022.1 |
| 20260502151735 | 95 | 45 | 0.9 | 7.8 | 0.00 | 0.00 | 0.00 | 14 | 1022.1 |
| 20260502151232 | 96 | 45 | 0.9 | 7.0 | 0.00 | 0.00 | 0.00 | 14 | 1022.3 |
| 20260502150730 | 95 | 0 | 0.9 | 5.2 | 0.00 | 0.00 | 0.00 | 15 | 1022.3 |
| 20260502150227 | 95 | 90 | 0.9 | 13.0 | 0.00 | 0.00 | 0.00 | 15 | 1022.3 |
| 20260502130632 | 96 | 0 | 0.9 | 3.5 | 0.00 | 0.00 | 0.00 | 17 | 1023.8 |
| 20260502130129 | 94 | 180 | 0.0 | 12.2 | 0.00 | 0.00 | 0.00 | 18 | 1023.8 |
| 20260502123617 | 92 | 45 | 9.6 | 14.8 | 0.00 | 0.00 | 0.00 | 18 | 1024.2 |
| 20260502123115 | 93 | 1.7 | 14.8 | 0.00 | 0.00 | 0.00 | 18 | 1024.3 | |
| 20260502122111 | 91 | 0 | 0.0 | 13.9 | 0.00 | 0.00 | 0.00 | 19 | 1024.4 |
| 20260502121608 | 93 | 45 | 0.9 | 6.1 | 0.00 | 0.00 | 0.00 | 19 | 1024.5 |
| 20260502121105 | 94 | 45 | 0.9 | 8.7 | 0.00 | 0.00 | 0.00 | 19 | 1024.5 |
| 20260502120603 | 94 | 0 | 0.0 | 12.2 | 0.00 | 0.00 | 0.00 | 20 | 1024.6 |
| 20260502115558 | 91 | 0 | 0.9 | 1.7 | 0.00 | 0.00 | 0.00 | 21 | 1024.7 |
| 20260502115056 | 90 | 45 | 0.0 | 13.9 | 0.00 | 0.00 | 0.00 | 21 | 1024.7 |
| 20260502114553 | 90 | 0 | 0.9 | 11.3 | 0.00 | 0.00 | 0.00 | 21 | 1024.8 |
| 20260502114051 | 92 | 45 | 0.0 | 13.9 | 0.00 | 0.00 | 0.00 | 22 | 1025.0 |
| 20260502113548 | 93 | 0 | 0.0 | 4.3 | 0.00 | 0.00 | 0.00 | 22 | 1025.0 |
| 20260502113046 | 91 | 0 | 0.0 | 13.0 | 0.00 | 0.00 | 0.00 | 22 | 1025.1 |
| 20260502112544 | 91 | 180 | 0.0 | 13.0 | 0.00 | 0.00 | 0.00 | 22 | 1025.2 |
| 20260502112041 | 90 | 45 | 0.0 | 10.4 | 0.00 | 0.00 | 0.00 | 23 | 1025.3 |
| 20260502111539 | 88 | 90 | 0.0 | 10.4 | 0.00 | 0.00 | 0.00 | 24 | 1025.3 |
| 20260502111036 | 88 | 45 | 0.9 | 13.0 | 0.00 | 0.00 | 0.00 | 23 | 1025.4 |
| 20260502110534 | 89 | 0 | 0.9 | 3.5 | 0.00 | 0.00 | 0.00 | 24 | 1025.4 |
| 20260502110032 | 89 | 45 | 0.9 | 14.8 | 0.00 | 0.00 | 0.00 | 24 | 1025.4 |
| 20260502105529 | 89 | 0 | 0.0 | 13.0 | 0.00 | 0.00 | 0.00 | 25 | 1025.5 |
| 20260502105027 | 87 | 225 | 0.0 | 4.3 | 0.00 | 0.00 | 0.00 | 25 | 1025.5 |
| 20260502104524 | 87 | 315 | 13.0 | 13.9 | 0.00 | 0.00 | 0.00 | 26 | 1025.7 |
| 20260502104022 | 87 | 0 | 1.7 | 12.2 | 0.00 | 0.00 | 0.00 | 26 | 1025.8 |
| 20260502103519 | 87 | 225 | 0.0 | 6.1 | 0.00 | 0.00 | 0.00 | 25 | 1025.8 |
| 20260502103017 | 87 | 180 | 0.0 | 7.0 | 0.00 | 0.00 | 0.00 | 26 | 1025.8 |
| 20260502102515 | 87 | 225 | 0.9 | 13.9 | 0.00 | 0.00 | 0.00 | 27 | 1025.9 |
| 20260502102012 | 87 | 0.0 | 2.6 | 0.00 | 0.00 | 0.00 | 27 | 1026.0 | |
| 20260502101510 | 87 | 270 | 0.0 | 15.6 | 0.00 | 0.00 | 0.00 | 28 | 1026.0 |
| 20260502101007 | 86 | 45 | 0.9 | 1.7 | 0.00 | 0.00 | 0.00 | 28 | 1026.1 |
| 20260502100505 | 86 | 45 | 0.0 | 15.6 | 0.00 | 0.00 | 0.00 | 28 | 1026.1 |
| 20260502091441 | 84 | 0 | 0.0 | 18.2 | 0.00 | 0.00 | 0.00 | 35 | 1026.7 |
| 20260502090938 | 82 | 45 | 0.9 | 11.3 | 0.00 | 0.00 | 0.00 | 34 | 1026.7 |
| 20260502090436 | 84 | 0 | 0.0 | 19.1 | 0.00 | 0.00 | 0.00 | 34 | 1026.8 |
| 20260502071343 | 66 | 270 | 0.0 | 1.7 | 0.00 | 0.00 | 0.00 | 47 | 1027.5 |
| 20260502070840 | 66 | 225 | 0.0 | 17.4 | 0.00 | 0.00 | 0.00 | 47 | 1027.5 |
| 20260502070338 | 65 | 180 | 0.0 | 17.4 | 0.00 | 0.00 | 0.00 | 47 | 1027.5 |
| 20260502065333 | 65 | 0 | 0.0 | 15.6 | 0.00 | 0.00 | 0.00 | 48 | 1027.5 |
| 20260502064831 | 65 | 45 | 0.0 | 10.4 | 0.00 | 0.00 | 0.00 | 48 | 1027.5 |
| 20260502064328 | 66 | 225 | 0.0 | 2.6 | 0.00 | 0.00 | 0.00 | 49 | 1027.5 |
| 20260502063826 | 66 | 135 | 0.0 | 0.9 | 0.00 | 0.00 | 0.00 | 49 | 1027.5 |
| 20260502062821 | 66 | 135 | 0.0 | 0.0 | 0.00 | 0.00 | 0.00 | 50 | 1027.5 |
| 20260502062319 | 65 | 135 | 0.0 | 15.6 | 0.00 | 0.00 | 0.00 | 50 | 1027.6 |
| 20260502061816 | 65 | 135 | 0.0 | 18.2 | 0.00 | 0.00 | 0.00 | 51 | 1027.5 |
| 20260502061314 | 64 | 135 | 0.0 | 0.0 | 0.00 | 0.00 | 0.00 | 51 | 1027.5 |
| 20260502060812 | 63 | 135 | 0.0 | 11.3 | 0.00 | 0.00 | 0.00 | 51 | 1027.6 |
| 20260502060309 | 62 | 180 | 0.0 | 9.6 | 0.00 | 0.00 | 0.00 | 51 | 1027.5 |
| 20260502055807 | 62 | 180 | 0.0 | 0.0 | 0.00 | 0.00 | 0.00 | 52 | 1027.5 |
| 20260502055306 | 61 | 180 | 0.0 | 0.0 | 0.00 | 0.00 | 0.00 | 52 | 1027.5 |
| 20260502054802 | 60 | 180 | 0.0 | 0.0 | 0.00 | 0.00 | 0.00 | 52 | 1027.6 |
| 20260502054259 | 59 | 180 | 0.0 | 13.9 | 0.00 | 0.00 | 0.00 | 52 | 1027.6 |
| 20260502053255 | 59 | 180 | 0.0 | 0.0 | 0.00 | 0.00 | 0.00 | 53 | 1027.6 |
| 20260502052752 | 58 | 180 | 0.0 | 0.0 | 0.00 | 0.00 | 0.00 | 53 | 1027.6 |
| 20260502052250 | 56 | 180 | 0.0 | 0.0 | 0.00 | 0.00 | 0.00 | 53 | 1027.6 |
| 20260502051747 | 56 | 180 | 0.0 | 0.0 | 0.00 | 0.00 | 0.00 | 53 | 1027.6 |
| 20260502051245 | 55 | 180 | 0.0 | 0.0 | 0.00 | 0.00 | 0.00 | 53 | 1027.7 |
| 20260502050743 | 54 | 180 | 0.0 | 0.0 | 0.00 | 0.00 | 0.00 | 54 | 1027.7 |
| 20260502050240 | 54 | 180 | 0.0 | 0.0 | 0.00 | 0.00 | 0.00 | 54 | 1027.6 |
| 20260502045738 | 53 | 180 | 0.0 | 0.0 | 0.00 | 0.00 | 0.00 | 54 | 1027.6 |
| 20260502045235 | 52 | 180 | 0.0 | 0.0 | 0.00 | 0.00 | 0.00 | 54 | 1027.5 |
| 20260502044733 | 52 | 180 | 0.0 | 0.0 | 0.00 | 0.00 | 0.00 | 54 | 1027.5 |
| 20260502044231 | 51 | 180 | 0.0 | 0.0 | 0.00 | 0.00 | 0.00 | 54 | 1027.5 |
| 20260502043728 | 50 | 180 | 0.0 | 0.0 | 0.00 | 0.00 | 0.00 | 54 | 1027.5 |
| 20260502043226 | 50 | 180 | 0.0 | 0.0 | 0.00 | 0.00 | 0.00 | 54 | 1027.5 |
| 20260502042723 | 49 | 180 | 0.0 | 0.0 | 0.00 | 0.00 | 0.00 | 54 | 1027.5 |
| 20260502042221 | 49 | 180 | 0.0 | 0.0 | 0.00 | 0.00 | 0.00 | 54 | 1027.5 |
| 20260502041719 | 48 | 180 | 0.0 | 0.0 | 0.00 | 0.00 | 0.00 | 54 | 1027.6 |
| 20260502041216 | 47 | 180 | 0.0 | 0.0 | 0.00 | 0.00 | 0.00 | 54 | 1027.5 |
| 20260502040714 | 47 | 180 | 0.0 | 0.0 | 0.00 | 0.00 | 0.00 | 54 | 1027.5 |
| 20260502040211 | 45 | 180 | 0.0 | 0.0 | 0.00 | 0.00 | 0.00 | 54 | 1027.5 |
| 20260502035709 | 45 | 180 | 0.0 | 0.0 | 0.00 | 0.00 | 0.00 | 54 | 1027.4 |
| 20260502035206 | 45 | 180 | 0.0 | 0.0 | 0.00 | 0.00 | 0.00 | 53 | 1027.4 |
| 20260502034704 | 46 | 180 | 0.0 | 0.9 | 0.00 | 0.00 | 0.00 | 54 | 1027.3 |
| 20260502034202 | 46 | 180 | 0.0 | 0.0 | 0.00 | 0.00 | 0.00 | 53 | 1027.4 |
| 20260502033659 | 46 | 180 | 0.0 | 0.0 | 0.00 | 0.00 | 0.00 | 53 | 1027.3 |
| 20260502033157 | 46 | 180 | 0.0 | 0.0 | 0.00 | 0.00 | 0.00 | 53 | 1027.2 |
| 20260502032654 | 46 | 180 | 0.0 | 0.0 | 0.00 | 0.00 | 0.00 | 53 | 1027.2 |
| 20260502032152 | 47 | 180 | 0.0 | 0.9 | 0.00 | 0.00 | 0.00 | 53 | 1027.3 |
| 20260502031650 | 47 | 180 | 0.0 | 0.0 | 0.00 | 0.00 | 0.00 | 53 | 1027.2 |
| 20260502031147 | 46 | 180 | 0.0 | 0.9 | 0.00 | 0.00 | 0.00 | 53 | 1027.2 |
| 20260502030645 | 46 | 180 | 0.0 | 0.0 | 0.00 | 0.00 | 0.00 | 52 | 1027.2 |
| 20260502030142 | 46 | 180 | 0.0 | 0.0 | 0.00 | 0.00 | 0.00 | 52 | 1027.2 |
| 20260502025640 | 46 | 225 | 0.0 | 0.0 | 0.00 | 0.00 | 0.00 | 52 | 1027.2 |
| 20260502025138 | 46 | 180 | 0.0 | 0.0 | 0.00 | 0.00 | 0.00 | 52 | 1027.2 |
| 20260502024635 | 46 | 180 | 0.0 | 0.0 | 0.00 | 0.00 | 0.00 | 52 | 1027.2 |
| 20260502024133 | 47 | 180 | 0.0 | 0.0 | 0.00 | 0.00 | 0.00 | 52 | 1027.3 |
| 20260502023630 | 47 | 180 | 0.0 | 0.0 | 0.00 | 0.00 | 0.00 | 52 | 1027.3 |
| 20260502023128 | 47 | 180 | 0.0 | 0.0 | 0.00 | 0.00 | 0.00 | 51 | 1027.3 |
| 20260502022625 | 47 | 180 | 0.0 | 17.4 | 0.00 | 0.00 | 0.00 | 51 | 1027.3 |
| 20260502022123 | 47 | 180 | 0.0 | 0.0 | 0.00 | 0.00 | 0.00 | 51 | 1027.3 |
| 20260502021621 | 47 | 180 | 0.0 | 0.9 | 0.00 | 0.00 | 0.00 | 51 | 1027.3 |
| 20260502021118 | 47 | 180 | 0.0 | 10.4 | 0.00 | 0.00 | 0.00 | 51 | 1027.3 |
| 20260502020616 | 47 | 180 | 0.0 | 13.9 | 0.00 | 0.00 | 0.00 | 51 | 1027.3 |
| 20260502020113 | 48 | 180 | 0.0 | 0.0 | 0.00 | 0.00 | 0.00 | 51 | 1027.3 |
| 20260502015611 | 47 | 180 | 0.0 | 4.3 | 0.00 | 0.00 | 0.00 | 51 | 1027.3 |
| 20260502015109 | 47 | 180 | 0.0 | 16.5 | 0.00 | 0.00 | 0.00 | 50 | 1027.3 |
| 20260502014606 | 48 | 180 | 0.0 | 0.9 | 0.00 | 0.00 | 0.00 | 50 | 1027.4 |
| 20260502014104 | 48 | 180 | 0.0 | 0.9 | 0.00 | 0.00 | 0.00 | 50 | 1027.3 |
| 20260502013601 | 48 | 180 | 0.0 | 0.0 | 0.00 | 0.00 | 0.00 | 50 | 1027.4 |
| 20260502013059 | 48 | 180 | 0.0 | 18.2 | 0.00 | 0.00 | 0.00 | 50 | 1027.3 |
| 20260502012557 | 49 | 180 | 0.0 | 0.9 | 0.00 | 0.00 | 0.00 | 49 | 1027.3 |
| 20260502012054 | 49 | 180 | 0.0 | 8.7 | 0.00 | 0.00 | 0.00 | 49 | 1027.3 |
| 20260502011552 | 49 | 180 | 0.0 | 3.5 | 0.00 | 0.00 | 0.00 | 49 | 1027.4 |
| 20260502011049 | 49 | 180 | 0.0 | 0.0 | 0.00 | 0.00 | 0.00 | 49 | 1027.4 |
| 20260502010547 | 49 | 180 | 0.0 | 13.9 | 0.00 | 0.00 | 0.00 | 49 | 1027.5 |
| 20260502010045 | 49 | 180 | 0.0 | 5.2 | 0.00 | 0.00 | 0.00 | 49 | 1027.5 |
| 20260502005542 | 49 | 180 | 0.0 | 0.9 | 0.00 | 0.00 | 0.00 | 49 | 1027.5 |
| 20260502005040 | 49 | 180 | 0.0 | 0.9 | 0.00 | 0.00 | 0.00 | 49 | 1027.5 |
| 20260502004537 | 49 | 180 | 0.0 | 0.9 | 0.00 | 0.00 | 0.00 | 48 | 1027.5 |
| 20260502004035 | 49 | 180 | 0.0 | 0.9 | 0.00 | 0.00 | 0.00 | 48 | 1027.5 |
| 20260502003532 | 49 | 180 | 0.0 | 0.0 | 0.00 | 0.00 | 0.00 | 48 | 1027.5 |
| 20260502003030 | 49 | 180 | 0.0 | 11.3 | 0.00 | 0.00 | 0.00 | 48 | 1027.5 |
| 20260502002528 | 49 | 180 | 0.0 | 0.0 | 0.00 | 0.00 | 0.00 | 48 | 1027.5 |
| 20260502002025 | 49 | 180 | 0.0 | 0.0 | 0.00 | 0.00 | 0.00 | 47 | 1027.5 |
| 20260502001523 | 50 | 180 | 0.0 | 0.0 | 0.00 | 0.00 | 0.00 | 47 | 1027.5 |
| 20260502001020 | 50 | 180 | 0.0 | 0.0 | 0.00 | 0.00 | 0.00 | 47 | 1027.5 |
| 20260502000518 | 50 | 180 | 0.0 | 0.9 | 0.00 | 0.00 | 0.00 | 47 | 1027.6 |
| 20260502000016 | 50 | 180 | 0.0 | 0.0 | 0.00 | 0.00 | 0.00 | 47 | 1027.6 |
| 20260501235513 | 51 | 180 | 0.0 | 0.0 | 0.00 | 0.00 | 0.00 | 47 | 1027.6 |
| 20260501235011 | 51 | 180 | 0.0 | 0.9 | 0.00 | 0.00 | 0.00 | 47 | 1027.5 |
| 20260501234508 | 51 | 180 | 0.0 | 0.9 | 0.00 | 0.00 | 0.00 | 46 | 1027.6 |
| 20260501234006 | 51 | 180 | 0.0 | 0.0 | 0.00 | 0.00 | 0.00 | 46 | 1027.6 |
| 20260501233503 | 51 | 180 | 0.0 | 0.0 | 0.00 | 0.00 | 0.00 | 46 | 1027.6 |
| 20260501233001 | 51 | 180 | 0.0 | 0.0 | 0.00 | 0.00 | 0.00 | 46 | 1027.7 |
| 20260501232459 | 51 | 180 | 0.0 | 0.0 | 0.00 | 0.00 | 0.00 | 45 | 1027.7 |